Location: Unspecified
(0.0000°N, 0.0000°E)
Time: 11:42:44
(UTC+00:00)

Envisat - Pass Details

Date: 06 October 2022
Orbit: 763 x 765 km, 98.2° (Epoch: 08 December)

Event Time Altitude Azimuth Distance (km) Brightness Sun altitude
Rises 03:58:16 0° 10° (N) 3,214 6.3 -27.4°
Reaches altitude 10° 04:00:34 10° 9° (N) 2,291 5.5 -26.8°
Maximum altitude 04:05:37 80° 283° (WNW) 778 2.8 -25.5°
Drops below altitude 10° 04:10:41 10° 195° (SSW) 2,299 5.4 -24.3°
Sets 04:12:59 0° 194° (SSW) 3,227 6.2 -23.7°
